User: anonymous   Login
Location: Fort Wayne
(41.1310°N, 85.1290°W)
Time: 06:54:50
(UTC-05:00)
Language:

Cosmos 2227 Rocket - Orbit

View from above orbital plane
View from above orbital plane
View from above satellite
View from above satellite

Ground track
Ground track

The orbit data is extracted from the following two-line orbital elements,

1 22285U 92093B   14330.73087315  .00000358  00000-0  20949-3 0  4603
2 22285 071.0228 010.3735 0002043 123.9769 236.1548 14.14934212130493
Epoch (UTC): 26 November 2014 17:32:27
Eccentricity: 0.0002043
inclination: 71.0228°
perigee height: 841 km
apogee height: 844 km
right ascension of ascending node: 10.3735°
argument of perigee: 123.9769°
revolutions per day: 14.14934212
mean anomaly at epoch: 236.1548°
orbit number at epoch: 13049

The dashed part of the orbit path shows where the satellite is in the earth's shadow,  

DLR